星链-5835 (STARLINK-5835 )

导读

STARLINK-5835是美国太空探索技术公司SpaceX星链星座的卫星,于2023年3月3日发射,属于星链互联网卫星星座组网的组成部分。星链星座旨在为全球提供高速低延迟互联网覆盖,该卫星承担着扩容星座网络、服务全球偏远及通信薄弱区域用户的任务,推动卫星互联网全球覆盖的建设进程。

Basic Information
目录编号:
55772
目录名称:
STARLINK-5835
国际标识:
2023-028AH
轨道中心:
EARTH
卫星名称:
星链-5835
卫星全名:
星链-5835 (STARLINK-5835 )
卫星状态:
在轨 (已飞行1289 天)
发射日期:
2023-03-03 UTC
国别 :
美国 (US)
星等 :
--
This satellite is enrolled in the Space Conjunction Data Service (SCDS) and the current flight risk assessment level is: No High Risk
Orbit Information
数据来源 国际轨道数据 AOE轨道数据
星历时间 2026-09-12T09:37:12+0800
14小时前
查看轨道信息
2026-09-10T23:00:00+0800
2天前
查看轨道信息
半长轴 6950.187km 6950.193km
偏心率 0.0002848 0.0003317
轨道倾角 69.999° 70.000°
近地点辐角 269.081° 262.809°
升交点赤经 114.416° 118.054°
平近点角 91.003° 238.655°
近地点 570.07km 569.75km
远地点 574.03km 574.362km
周期 96.107分钟 96.107分钟
每日圈数 14.98332 14.983302
Detailed Information
固有亮度:
5
最大亮度:
2.5
卫星平台:
Starlink v1.5
覆盖范围:
全球
运营商:
太空探索技术公司
运营商所在国:
美国
制造商(研发单位):
太空探索技术公司
制造商所在国:
美国
使用方式:
暂无
Satellite Introduction
星链(Starlink)计划是由太空探索技术公司(SpaceX)提出的一个巨型低轨卫星互联网星座项目,计划在2019年至2024年间在太空搭建由约1.2万颗卫星组成的“星链”网络,其中1584颗将部署在地球上空550千米处的近地轨道,并从2020年开始工作。该卫星仍在工作。
2D Orbit Map
3D Orbit Map
Orbit Altitude Analysis Chart
Orbit Inclination Analysis Chart
Orbit Comprehensive Analysis Chart
View Comprehensive Chart
Conjunction Data List
Event ID Objects TCA Miss Dist (km) Collision Risk Probability Collision Risk Index (CRI) Action
CDM_260914-235305-577206-139621
2026-09-14T
23:53:42+0000
2.242 km
极远距离
2.164571E-6 低风险 0.42
Miss Distance Evolution Trend with All Objects
Collision Probability Evolution Trend with All Objects